This is the latest recevied weather packets stored in our database for station/object K5NCO. If no packets are shown the sender has not sent any weather packets the latest 10 day(s).
| Time | Temp. | Humidity | Pressure | Rain* | Wind** | Luminosity | Snow |
|---|---|---|---|---|---|---|---|
| 1777851631 | 24.44° C | 41% | 1018.9 hPa | 0 mm | - | 130 W/m² | - |
| 1777851327 | 24.44° C | 42% | 1019 hPa | 0 mm | - | 157 W/m² | - |
| 1777851023 | 24.44° C | 42% | 1019 hPa | 0 mm | - | 144 W/m² | - |
| 1777850721 | 24.44° C | 41% | 1019 hPa | 0 mm | - | 136 W/m² | - |
| 1777850418 | 24.44° C | 42% | 1019.2 hPa | 0 mm | - | 122 W/m² | - |
| 1777850116 | 24.44° C | 41% | 1019.1 hPa | 0 mm | - | 105 W/m² | - |
| 1777849812 | 24.44° C | 41% | 1018.9 hPa | 0 mm | - | 97 W/m² | - |
| 1777849509 | 24.44° C | 41% | 1018.9 hPa | 0 mm | - | 98 W/m² | - |
| 1777849207 | 25° C | 39% | 1018.8 hPa | 0 mm | - | 118 W/m² | - |
| 1777848903 | 25° C | 39% | 1019 hPa | 0 mm | - | 193 W/m² | - |
| 1777848598 | 25.56° C | 38% | 1018.9 hPa | 0 mm | - | 253 W/m² | - |
| 1777848296 | 25° C | 39% | 1019 hPa | 0 mm | - | 309 W/m² | - |
| 1777847993 | 25° C | 40% | 1019.2 hPa | 0 mm | - | 336 W/m² | - |
| 1777847691 | 25° C | 40% | 1019.3 hPa | 0 mm | - | 328 W/m² | - |
| 1777847386 | 25.56° C | 38% | 1019.3 hPa | 0 mm | - | 347 W/m² | - |
| 1777847085 | 25.56° C | 38% | 1019.3 hPa | 0 mm | - | 373 W/m² | - |
| 1777846783 | 25.56° C | 39% | 1019.3 hPa | 0 mm | - | 386 W/m² | - |
| 1777846481 | 25.56° C | 39% | 1019.5 hPa | 0 mm | - | 376 W/m² | - |
| 1777846177 | 25° C | 38% | 1019.6 hPa | 0 mm | - | 398 W/m² | - |
| 1777845874 | 25.56° C | 39% | 1019.5 hPa | 0 mm | - | 421 W/m² | - |
| 1777845571 | 25° C | 37% | 1019.6 hPa | 0 mm | - | 396 W/m² | - |
| 1777845268 | 25.56° C | 38% | 1019.8 hPa | 0 mm | - | 461 W/m² | - |
| 1777844966 | 25° C | 36% | 1019.6 hPa | 0 mm | - | 478 W/m² | - |
| 1777844663 | 25° C | 38% | 1019.8 hPa | 0 mm | - | 420 W/m² | - |
| 1777844360 | 25.56° C | 38% | 1020 hPa | 0 mm | - | 470 W/m² | - |
* Rain latest hour (hover to see other rain measurements)
** Current wind speed in m/s (hover to see current wind gust speed)